DL3NBY Weather Reports


time (UTC)temp
C
wind
direction
speed
KPH
gust
KPH
rain 1hr
cm
rain 24hr
cm
rain mn
cm
humidity
%
barometer
mb
20260504141030 23 258 1.6 6.4 0.00 0.00 0.00 50 1011.0
20260504130108 23 0.0 3.2 0.00 0.00 0.00 45 1011.5
20260504100111 21 180 1.6 6.4 0.00 0.00 0.00 51 1012.9
20260504081036 18 191 4.8 12.9 0.00 0.00 0.00 59 1013.5
20260504070116 16 164 3.2 8.0 0.00 0.00 0.00 69 1013.5
20260504044030 11 0.0 0.0 0.00 0.00 0.00 94 1013.0
20260504043027 10 0.0 0.0 0.00 0.00 0.00 95 1013.0
20260504042024 10 0.0 0.0 0.00 0.00 0.00 95 1013.0
20260504035115 9 0.0 0.0 0.00 0.00 0.00 97 1013.0
20260504034112 10 0.0 0.0 0.00 0.00 0.00 96 1013.0
20260504033109 10 0.0 0.0 0.00 0.00 0.00 95 1013.0
20260504032106 10 0.0 0.0 0.00 0.00 0.00 94 1013.0
20260504031103 11 0.0 0.0 0.00 0.00 0.00 94 1013.0
20260504030139 11 0.0 0.0 0.00 0.00 0.00 95 1013.1
20260504025056 11 0.0 0.0 0.00 0.00 0.00 94 1013.0
20260504024053 11 0.0 0.0 0.00 0.00 0.00 94 1012.9
20260504023050 11 0.0 0.0 0.00 0.00 0.00 94 1012.9
20260504022047 11 0.0 0.0 0.00 0.00 0.00 94 1012.9
20260504021043 11 0.0 0.0 0.00 0.00 0.00 94 1012.8
20260504020040 11 0.0 0.0 0.00 0.00 0.00 93 1012.8
20260504015057 11 0.0 0.0 0.00 0.00 0.00 93 1012.9
20260504014034 11 0.0 0.0 0.00 0.00 0.00 92 1013.0
20260504013031 11 0.0 0.0 0.00 0.00 0.00 91 1013.1
20260504012028 10 0.0 0.0 0.00 0.00 0.00 92 1013.0
20260504010022 10 0.0 0.0 0.00 0.00 0.00 91 1013.1
20260504005018 10 0.0 0.0 0.00 0.00 0.00 91 1013.1
20260504004015 10 0.0 0.0 0.00 0.00 0.00 92 1013.0
20260504003113 10 0.0 0.0 0.00 0.00 0.00 91 1013.1
20260504002109 11 0.0 0.0 0.00 0.00 0.00 89 1013.2
20260503235100 13 0.0 0.0 0.00 0.00 0.00 83 1012.9
20260503234056 15 0.0 0.0 0.00 0.00 0.00 79 1012.9
20260503233134 16 0.0 0.0 0.00 0.00 0.00 71 1012.8
20260503232050 16 0.0 0.0 0.00 0.00 0.00 68 1012.8
20260503225041 16 248 1.6 8.0 0.00 0.00 0.00 67 1012.7
20260503224058 16 0.0 3.2 0.00 0.00 0.00 69 1012.3
20260503221028 13 207 0.0 3.2 0.00 0.00 0.00 84 1012.6
20260503215042 12 0.0 0.0 0.00 0.00 0.00 93 1012.5
20260503214039 12 0.0 0.0 0.00 0.00 0.00 95 1012.3
20260503213035 11 0.0 0.0 0.00 0.00 0.00 95 1012.1
20260503212112 11 0.0 0.0 0.00 0.00 0.00 93 1011.9
20260503211109 11 0.0 0.0 0.00 0.00 0.00 93 1012.0
20260503210106 11 0.0 0.0 0.00 0.00 0.00 93 1011.9
20260503205103 11 0.0 0.0 0.00 0.00 0.00 93 1011.7
20260503204059 12 0.0 0.0 0.00 0.00 0.00 92 1011.7
20260503200043 12 0.0 0.0 0.00 0.00 0.00 90 1011.3
20260503195040 12 0.0 0.0 0.00 0.00 0.00 89 1011.2
20260503194035 13 0.0 0.0 0.00 0.00 0.00 88 1011.2
20260503192028 13 0.0 0.0 0.00 0.00 0.00 88 1011.1
20260503191024 13 0.0 0.0 0.00 0.00 0.00 85 1011.0
20260503185018 15 0.0 0.0 0.00 0.00 0.00 82 1010.9
20260503184015 15 0.0 0.0 0.00 0.00 0.00 81 1010.9
20260503183112 15 0.0 0.0 0.00 0.00 0.00 81 1010.8
20260503181126 17 0.0 1.6 0.00 0.00 0.00 79 1010.6
20260503175059 19 0.0 0.0 0.00 0.00 0.00 77 1010.6
20260503174056 20 0.0 0.0 0.00 0.00 0.00 78 1010.6
20260503173053 20 0.0 0.0 0.00 0.00 0.00 76 1010.6
20260503172050 20 0.0 0.0 0.00 0.00 0.00 72 1010.6